GFSSW_700_rhum_000.txt.gz
RH
20 20 19 18 19 18 14 9 8 9 12 15 16 17 12 14 16 16 16 16 17 18 20 20 18 16 14 12 10 21 32 31 31 27 27 26 26 24 24 33 30 31 36 36 35
16 15 14 16 17 14 8 6 6 5 7 10 14 18 16 19 23 22 20 20 19 18 18 21 23 21 23 20 18 22 35 36 35 34 31 26 25 23 26 29 31 35 36 36 35
11 9 9 9 6 4 2 6 8 8 8 10 13 16 22 27 22 19 17 15 14 15 16 19 19 19 22 25 27 28 30 34 35 34 31 27 26 24 26 26 30 31 31 33 33
13 12 9 8 8 7 4 7 10 9 10 11 13 16 18 17 21 22 20 20 20 19 19 17 17 22 26 32 30 26 28 30 30 34 29 31 30 31 30 32 34 36 36 36 35
14 13 12 12 12 10 7 10 11 10 11 14 16 19 24 23 23 24 26 26 26 24 22 22 22 22 23 24 26 27 28 29 30 33 33 33 32 29 34 36 36 37 37 36 36
14 14 14 14 13 13 12 11 10 10 13 16 19 19 22 22 26 28 32 32 31 29 28 27 26 26 27 27 28 32 35 30 28 33 34 36 34 34 35 36 36 36 35 31 26
15 14 13 11 10 9 8 9 9 12 15 19 20 21 24 27 28 30 36 34 30 30 31 30 29 28 29 28 35 36 33 34 34 34 34 38 37 36 35 36 36 34 31 29 29
15 14 12 11 10 10 10 10 12 13 17 19 20 26 19 27 27 34 33 36 33 31 30 28 30 34 33 35 33 35 32 34 36 37 39 40 40 38 36 36 33 31 32 33 33
8 6 7 8 9 10 10 11 14 16 21 23 23 23 21 28 27 25 26 26 24 27 31 31 35 33 36 35 33 31 30 33 40 43 42 40 38 36 35 34 35 36 36 37 36
8 6 8 10 12 14 12 13 18 19 20 18 18 20 24 25 24 22 25 29 33 34 30 34 34 34 21 19 32 35 36 33 38 38 39 34 34 36 40 42 44 45 45 43 39
9 10 10 12 14 15 14 15 17 18 15 16 15 14 12 12 12 14 14 17 17 19 26 30 36 23 22 23 24 25 26 25 32 38 36 32 35 46 50 53 55 54 51 48 46
11 12 12 13 15 15 14 15 16 15 15 15 14 13 13 16 18 18 19 17 17 16 25 33 26 24 28 30 28 23 23 26 28 36 29 39 46 58 62 60 58 56 55 56 55
12 13 14 14 15 15 15 15 20 15 16 18 18 19 19 20 21 21 21 19 19 20 30 26 24 28 29 26 22 23 26 26 28 25 26 38 50 63 65 66 68 68 65 64 65
14 13 15 16 16 14 15 17 18 20 18 21 22 26 23 22 25 27 23 22 22 26 29 29 33 30 29 23 21 22 21 18 21 29 29 40 52 71 72 71 75 67 59 58 57
15 11 14 15 16 15 19 25 26 28 26 23 23 27 27 25 28 26 23 23 25 27 29 31 32 32 26 27 24 24 17 16 28 28 30 34 44 75 81 72 60 52 50 48 45
16 10 15 15 17 17 19 20 28 20 29 26 25 31 30 28 28 30 26 25 27 29 29 30 33 32 31 26 26 21 12 28 32 29 39 36 33 75 74 60 49 46 45 45 40
17 11 15 17 17 19 21 24 21 25 30 28 30 30 30 30 30 28 26 24 27 28 28 31 31 32 29 26 28 18 14 21 27 33 36 31 32 64 50 48 47 47 48 45 46
18 11 15 17 19 21 23 21 23 29 30 31 32 32 30 34 33 31 33 33 35 35 37 34 33 32 33 32 38 30 32 23 29 36 30 34 66 58 50 51 50 54 50 51 33
20 12 16 18 20 22 23 22 27 29 32 32 32 32 35 38 36 33 34 40 39 39 37 38 36 34 30 32 38 34 32 39 45 48 52 57 81 63 50 56 59 52 47 35 30
21 12 19 20 23 24 24 23 28 31 33 33 34 35 38 36 38 37 38 43 42 41 40 38 35 31 31 35 40 41 42 28 38 46 43 43 86 70 54 55 56 49 35 29 49
22 15 20 25 28 28 25 25 29 31 34 33 35 37 37 36 36 38 41 43 45 44 42 40 38 32 31 34 40 38 29 26 30 40 58 66 50 56 59 58 52 38 28 55 47
24 18 21 27 29 31 28 27 28 32 33 34 37 39 39 38 40 41 44 44 44 45 45 40 37 31 27 35 43 37 31 31 29 32 36 45 46 56 55 54 40 42 59 50 50
26 20 21 24 29 32 31 29 30 32 34 34 38 41 38 39 42 44 44 43 45 46 45 40 35 32 23 37 36 37 24 29 36 39 36 48 45 52 53 39 39 63 53 51 58
29 25 25 25 31 36 33 33 33 35 38 40 41 40 41 41 40 40 43 42 44 45 44 42 34 27 20 20 27 20 16 31 38 44 44 49 50 32 29 62 58 57 47 63 67
30 29 26 27 32 39 37 35 38 42 45 41 40 42 41 39 40 39 39 42 44 45 45 41 28 19 14 16 13 14 26 33 40 50 48 38 32 49 76 70 60 59 61 76 79
32 30 28 30 35 41 39 37 38 43 46 43 42 42 39 40 42 40 40 44 43 41 39 30 20 17 9 11 16 28 48 47 45 42 44 41 52 66 74 59 63 61 67 80 88
30 31 32 34 40 42 40 38 40 41 40 41 41 42 40 41 40 40 40 38 41 37 29 22 16 9 10 15 19 56 44 51 50 52 49 59 60 74 58 70 76 68 76 83 87

GFSSW_700_rhum_003.txt.gz
RH
19 19 18 20 18 13 8 6 6 8 11 15 17 13 14 17 18 16 15 15 17 19 20 19 17 14 10 9 15 24 28 29 30 30 33 28 24 23 24 30 28 28 35 36 37
16 15 16 18 14 7 6 7 6 6 8 11 16 17 19 22 23 22 18 17 16 16 17 19 22 21 18 13 15 27 31 33 33 33 34 25 23 26 28 30 31 36 37 38 38
13 12 15 11 6 3 4 9 8 8 9 12 16 19 23 21 20 16 14 15 16 17 17 19 21 22 21 21 24 27 35 36 36 34 31 28 27 27 32 33 36 38 38 39 38
12 9 8 8 8 6 3 10 9 10 12 14 16 18 19 25 21 21 21 21 21 20 18 18 20 22 22 24 27 31 30 31 36 33 33 32 35 34 35 34 36 37 38 38 38
14 12 12 12 12 9 6 11 10 11 14 16 20 23 21 23 25 27 26 25 24 23 24 23 23 25 25 27 27 28 31 33 34 33 35 36 36 35 35 37 37 38 38 38 34
13 13 13 13 12 12 11 10 10 12 15 18 20 21 26 25 29 28 30 30 28 28 28 27 26 26 27 29 32 35 35 34 31 32 35 36 38 37 38 39 41 39 36 35 34
14 13 11 10 9 8 8 10 12 13 17 19 19 20 23 26 29 33 32 31 31 31 30 28 27 28 29 29 36 34 34 34 35 36 36 39 40 39 42 43 46 41 40 39 38
15 14 12 11 10 10 11 12 13 18 19 20 20 26 21 27 28 31 35 35 33 29 26 27 32 34 34 34 35 32 34 36 39 40 40 43 45 45 46 46 47 45 44 43 42
7 8 9 10 10 11 12 14 17 21 21 22 22 22 22 30 28 27 29 27 24 25 27 33 32 26 29 35 33 31 31 36 43 43 44 40 40 46 52 55 55 52 50 48 46
7 10 13 14 13 12 15 16 16 17 17 19 19 20 21 19 20 22 26 31 30 28 28 31 24 20 17 18 21 24 28 30 34 39 38 34 37 56 62 60 58 58 56 55 53
10 12 13 15 16 14 14 15 16 16 15 14 12 12 13 14 16 16 18 25 20 27 25 24 21 21 26 27 25 24 23 26 37 43 40 38 42 50 55 58 61 61 60 58 57
12 13 14 16 16 16 15 16 14 14 13 14 15 15 18 19 21 21 19 20 17 20 27 26 22 25 28 26 24 22 24 28 32 31 31 40 43 55 64 65 66 65 64 62 58
13 14 15 16 15 15 15 15 16 16 21 24 24 22 20 22 23 22 22 21 25 29 27 24 28 28 30 23 19 21 20 22 22 25 32 42 59 67 68 68 64 65 58 53 52
12 15 16 16 15 15 16 21 22 18 20 24 25 25 24 23 25 24 23 22 23 25 28 27 33 34 24 19 19 20 18 16 16 30 34 41 53 72 72 72 67 61 52 49 49
10 14 16 16 16 17 19 26 30 28 25 24 26 26 26 24 26 24 24 25 25 26 28 32 32 24 20 20 20 20 14 12 26 30 38 47 49 76 78 73 66 52 51 54 59
10 14 15 17 16 19 23 27 28 19 30 26 29 30 28 27 27 27 24 24 23 26 27 26 29 25 26 22 22 20 12 23 33 33 40 40 40 81 79 65 54 55 58 61 42
13 11 16 16 16 20 23 25 22 24 29 29 30 28 27 27 26 26 24 23 24 25 25 27 30 25 24 23 30 23 14 17 26 29 30 38 37 64 57 55 57 58 54 43 30
15 10 17 17 19 20 22 22 22 26 30 31 29 30 29 29 29 28 28 28 29 28 31 28 28 28 27 26 32 31 23 21 28 30 26 36 54 60 57 56 59 54 48 42 29
16 11 17 18 20 22 24 22 23 28 30 32 31 30 32 32 31 30 31 32 33 31 33 33 33 33 31 28 32 33 29 31 45 50 52 62 70 62 61 61 55 51 45 30 29
19 12 18 20 22 25 25 22 24 29 30 30 31 31 32 32 33 31 33 36 36 36 38 38 34 33 32 30 34 31 34 20 22 48 47 41 79 75 68 57 51 48 27 30 42
20 15 21 22 25 26 25 24 24 27 31 30 32 33 32 34 34 36 37 38 39 41 38 37 35 33 30 28 30 33 30 24 23 32 61 72 49 49 53 52 41 26 37 48 56
22 19 23 26 30 29 27 25 25 27 29 30 32 33 32 34 36 37 39 40 41 42 39 34 32 31 26 23 32 36 31 29 31 28 34 42 43 45 49 32 33 45 59 64 67
22 19 23 27 30 30 29 27 27 28 30 32 33 35 34 36 38 40 39 40 43 43 39 32 31 28 22 33 36 36 26 24 30 41 41 46 36 44 35 32 38 66 63 67 68
24 22 24 24 27 32 31 29 30 32 35 38 38 36 35 35 37 40 40 41 42 42 39 31 28 26 22 20 25 22 16 21 28 41 42 42 44 39 38 40 52 56 58 70 66
26 23 24 24 27 32 33 33 32 35 41 41 37 36 35 36 38 39 39 41 40 38 35 30 24 20 15 14 13 11 16 24 35 39 48 42 46 47 58 65 56 62 72 70 63
28 26 26 26 29 35 35 35 34 36 43 43 40 37 37 37 39 39 39 41 37 36 32 24 21 17 12 10 11 16 22 40 32 44 44 49 43 76 70 54 61 70 78 76 75
27 28 30 29 31 37 37 36 35 37 41 38 37 37 39 37 35 35 35 34 32 30 26 23 19 13 10 14 16 35 35 38 35 47 51 49 57 76 56 56 67 71 81 88 86

GFSSW_700_rhum_006.txt.gz
RH
19 19 19 16 12 7 6 6 8 10 14 16 13 14 17 18 17 15 13 15 18 19 18 17 14 9 9 13 17 24 26 29 31 31 34 31 27 27 28 37 36 33 37 38 38
17 17 17 11 8 6 8 8 7 8 10 14 16 18 22 22 20 17 15 15 15 16 18 18 19 17 12 12 22 25 28 31 35 33 30 30 31 31 36 37 34 40 41 42 43
14 16 16 9 5 3 8 10 9 10 11 14 18 22 21 18 17 15 15 17 17 17 17 18 20 23 20 17 26 33 32 36 37 37 33 32 35 37 39 39 40 43 44 46 47
10 9 7 7 7 4 4 10 10 11 14 16 18 18 27 20 20 22 20 20 19 17 18 20 23 23 22 24 26 32 34 37 39 38 37 35 37 37 40 38 39 40 40 40 40
12 10 11 12 11 7 6 11 10 14 16 17 20 21 23 24 26 28 26 24 22 22 22 22 24 24 26 28 30 33 37 35 35 36 35 37 38 36 37 40 41 42 41 40 38
14 13 13 13 12 11 11 10 12 14 16 19 22 25 30 25 32 31 30 29 28 27 26 26 26 26 28 30 34 37 38 38 35 32 38 38 40 40 42 40 41 43 43 41 41
14 13 11 10 9 9 10 11 13 16 18 20 21 26 28 29 32 32 32 31 30 29 29 27 26 27 27 34 35 37 35 36 39 39 38 40 42 42 44 45 45 47 47 47 46
14 13 11 10 10 10 11 13 16 18 20 20 22 27 23 26 27 32 33 33 31 27 27 31 33 34 34 35 35 38 38 38 44 42 41 45 48 50 48 49 51 54 54 53 52
10 10 10 11 11 12 13 16 18 20 21 21 22 21 18 23 24 26 25 25 26 28 31 31 23 25 31 34 35 33 34 40 44 43 40 39 45 49 56 58 59 59 60 58 57
10 13 14 12 12 14 15 16 16 20 19 17 17 14 15 15 17 22 24 25 29 28 29 24 18 18 16 25 22 24 27 30 32 35 39 39 39 48 56 63 66 67 66 64 62
13 14 16 14 14 15 15 17 18 14 12 12 15 15 16 17 18 17 19 18 23 29 24 18 18 17 21 21 22 22 24 30 32 39 39 40 43 51 62 68 69 68 66 64 62
14 15 16 15 15 16 16 15 13 12 14 18 18 20 23 22 20 18 19 18 19 22 20 21 20 25 24 22 20 22 24 26 31 34 33 45 49 60 67 69 68 64 62 62 58
14 16 16 16 16 16 16 16 18 20 24 26 24 22 22 24 21 20 20 21 22 25 23 22 28 25 22 19 18 19 16 16 20 26 34 48 62 66 66 65 62 60 61 57 57
15 16 16 15 16 16 17 19 19 21 21 26 24 24 24 23 22 22 23 24 22 24 26 24 30 27 20 18 17 16 15 13 17 27 40 41 62 66 68 66 66 68 64 57 56
15 17 18 17 15 16 20 21 28 28 24 25 27 27 26 22 23 24 24 24 23 24 24 27 25 24 19 19 20 20 14 12 25 35 42 47 55 70 70 72 75 67 57 55 51
15 15 18 17 18 19 23 29 28 21 30 26 30 29 28 24 24 25 24 24 23 26 25 24 24 22 21 20 21 19 13 16 24 36 42 48 55 74 75 70 63 56 55 53 46
12 15 17 18 18 22 24 27 24 24 28 28 30 29 27 25 26 27 25 22 23 25 25 26 25 24 24 20 26 20 13 15 23 25 25 38 35 48 51 55 56 57 55 42 28
11 14 17 17 19 21 24 24 23 28 29 29 29 30 27 27 27 26 27 25 27 27 28 28 28 27 27 23 25 27 20 17 22 27 24 34 47 50 48 55 60 54 41 27 26
14 12 18 18 21 23 25 23 23 26 28 30 28 29 28 30 30 28 27 28 30 31 31 30 30 28 31 25 24 24 24 23 37 44 52 50 53 56 55 62 54 44 31 27 35
16 12 18 19 22 24 25 23 23 25 27 30 30 29 29 29 31 30 30 32 34 35 34 32 27 29 30 28 25 24 26 19 16 34 30 36 52 60 58 50 43 33 28 34 49
18 14 18 20 23 25 25 24 23 24 27 28 30 30 30 30 32 34 34 36 35 36 34 32 29 27 26 25 24 29 26 24 20 26 52 71 38 37 47 43 38 32 33 46 54
19 18 20 22 26 27 27 25 24 24 25 28 29 32 31 32 35 37 36 35 36 36 35 30 28 26 25 23 26 25 26 28 24 23 33 49 36 39 45 42 38 34 48 54 60
20 18 22 24 29 29 28 27 26 26 28 30 33 34 33 34 35 37 34 35 36 36 33 28 28 24 24 32 28 23 23 25 26 39 38 42 28 33 44 38 35 52 55 62 73
22 21 22 23 29 30 30 28 28 29 32 35 37 35 34 33 36 36 36 35 36 35 33 30 28 26 22 20 19 16 14 16 25 34 38 33 34 35 40 43 47 57 63 73 75
24 21 20 23 25 28 31 30 31 31 33 37 37 35 34 36 36 36 34 34 33 32 30 28 24 23 19 17 14 12 12 16 23 35 36 31 41 47 34 52 60 60 70 70 69
25 22 22 22 24 28 31 32 34 33 34 37 38 35 36 36 36 36 33 32 28 28 28 25 24 21 19 16 13 13 14 16 25 37 32 42 40 39 45 60 59 66 68 63 69
26 24 25 25 26 29 32 34 34 34 35 36 35 34 36 38 34 32 32 30 28 27 25 25 24 20 14 15 14 19 24 24 29 30 33 41 35 44 58 59 64 68 63 72 80

GFSSW_700_rhum_009.txt.gz
RH
20 20 17 9 6 6 6 7 9 13 16 13 14 17 18 17 15 14 14 16 18 18 16 12 10 24 30 28 23 22 25 29 35 33 35 34 32 34 32 39 38 38 42 42 42
18 19 15 8 6 8 8 8 9 11 14 15 17 20 21 18 16 14 13 15 16 18 18 18 15 11 10 14 20 23 30 38 37 35 35 35 37 36 39 37 36 38 41 44 48
16 17 12 7 4 6 10 9 10 12 14 16 19 21 18 16 16 15 15 15 16 17 17 18 20 19 13 23 29 31 34 39 38 37 37 36 38 39 40 41 41 44 46 47 48
16 15 7 6 6 4 9 10 11 13 15 16 17 23 20 20 19 20 19 17 16 16 18 19 21 20 21 24 29 30 39 40 39 39 38 37 38 39 40 38 41 42 42 43 43
9 8 10 11 10 6 9 11 12 14 17 18 18 21 22 21 22 24 23 22 21 21 21 22 24 24 25 30 28 29 32 35 36 37 37 37 39 39 38 40 43 45 45 44 43
12 12 13 12 12 11 11 11 13 15 16 17 20 21 26 25 27 27 28 27 27 26 25 25 25 26 28 28 31 33 36 37 39 39 39 40 41 43 44 43 45 48 47 48 47
14 13 12 12 11 10 10 12 15 16 16 18 19 23 25 25 29 30 30 29 28 26 24 24 25 25 31 34 36 38 35 36 39 40 39 40 43 44 48 50 51 50 49 50 51
13 12 10 9 10 10 12 15 16 16 17 18 21 26 19 24 28 29 32 29 24 22 27 28 31 32 34 35 39 38 39 40 42 43 42 45 46 50 52 54 53 56 58 60 61
12 11 11 11 11 12 15 18 18 15 17 17 18 16 16 19 22 23 23 25 26 26 22 19 17 31 36 37 38 38 37 40 44 42 40 41 48 50 49 53 55 58 62 63 64
12 12 12 12 12 14 17 19 16 17 17 15 13 13 16 17 17 19 19 22 25 27 20 18 17 16 30 34 22 21 26 26 31 33 37 39 40 43 47 53 58 63 66 65 65
14 14 13 14 15 16 16 15 14 15 14 14 15 16 19 19 17 18 17 16 22 24 20 17 18 17 19 19 21 22 24 26 29 33 37 32 34 38 48 58 62 66 66 64 61
15 15 14 14 15 17 16 14 13 16 17 19 22 23 22 20 19 18 18 18 21 21 21 21 17 19 19 18 20 22 19 20 22 27 38 39 43 48 58 62 65 64 60 62 65
15 15 15 15 15 15 13 16 22 23 25 25 24 22 24 23 22 20 21 21 22 24 20 20 22 20 18 19 20 19 16 18 21 28 36 44 54 55 60 63 63 62 65 65 60
16 15 15 15 16 16 20 21 21 21 22 26 23 24 23 22 21 22 22 22 20 22 23 22 23 22 18 16 16 16 15 13 16 32 38 37 55 49 57 64 66 67 70 57 53
17 17 15 16 15 18 21 23 25 28 23 26 27 26 24 22 22 22 22 21 21 20 22 24 24 22 16 15 16 19 14 12 23 36 42 46 57 59 58 65 71 68 54 54 41
16 18 17 16 16 17 21 29 26 21 30 28 28 28 26 23 23 23 23 21 22 22 22 22 23 22 21 16 19 18 14 16 20 41 48 41 49 60 61 64 61 55 56 42 30
15 17 17 17 19 22 25 26 24 24 28 29 28 27 26 25 26 27 25 21 22 24 23 25 26 24 21 17 20 17 15 16 22 22 25 37 48 43 51 54 56 55 43 35 32
14 17 18 18 20 23 25 24 23 27 28 28 28 28 26 27 27 26 26 24 25 24 26 26 27 26 24 21 20 20 19 17 21 22 24 28 40 44 45 56 57 44 39 34 30
11 16 18 18 21 24 26 23 23 25 26 26 27 28 27 27 28 27 27 28 28 28 27 26 28 28 27 23 20 20 22 22 22 33 43 37 44 43 50 59 46 41 38 33 33
14 13 18 20 23 25 25 23 23 24 25 26 26 27 27 28 28 29 29 31 29 30 29 26 24 26 27 23 21 22 24 21 17 23 22 25 32 45 52 46 41 41 36 36 42
17 14 19 20 23 25 25 24 22 24 26 27 26 27 28 28 29 31 30 31 31 32 31 27 23 24 25 23 20 26 27 23 20 21 30 42 25 35 39 42 44 36 38 42 55
18 16 19 20 24 26 26 25 24 24 26 27 28 30 30 29 30 32 32 31 32 32 29 27 23 23 24 22 24 26 25 24 21 21 26 40 34 35 39 41 36 34 42 54 64
19 18 20 21 25 27 27 26 26 26 28 30 33 34 32 30 30 32 33 32 31 32 29 26 26 24 24 28 28 23 22 25 24 28 30 35 25 31 41 35 30 45 53 64 61
20 20 22 22 26 28 29 28 28 28 30 32 36 35 32 31 32 33 34 31 30 29 28 28 26 25 24 24 23 21 18 17 18 28 27 25 28 32 34 31 43 54 60 65 66
22 21 21 23 25 28 28 29 29 30 31 33 35 35 34 33 33 31 30 30 28 27 28 28 26 25 24 24 21 17 16 16 18 23 29 28 32 37 32 38 53 58 64 68 64
23 23 21 21 23 24 26 29 31 32 31 33 36 34 32 34 35 32 29 28 25 26 28 27 27 27 29 24 20 21 18 21 20 23 30 30 27 30 33 47 56 60 67 64 63
24 24 22 22 23 24 26 29 31 32 31 33 35 34 33 34 36 30 29 27 24 25 27 27 28 27 24 23 23 22 29 20 19 20 24 27 25 33 37 53 56 62 65 64 54

GFSSW_700_rhum_012.txt.gz
RH
22 19 11 6 6 6 8 11 14 15 13 13 16 17 15 13 13 14 16 15 16 14 11 28 31 27 25 23 22 21 36 40 42 34 28 29 35 31 30 37 40 46 46 48 48
20 15 8 7 8 8 8 10 11 13 14 16 20 20 16 14 14 15 14 15 16 17 16 11 17 27 28 26 21 22 38 33 34 32 32 36 38 38 39 37 38 40 43 44 46
18 15 8 5 6 10 10 10 12 13 16 18 20 18 15 14 17 15 14 14 15 17 18 18 15 12 12 17 21 24 28 35 34 38 37 37 38 38 40 42 41 43 44 45 47
17 13 8 6 4 6 11 10 13 15 16 16 20 18 18 19 19 18 16 15 16 16 17 17 18 17 16 22 24 24 33 40 38 40 39 39 39 41 39 39 39 42 43 43 44
15 8 8 10 7 5 11 11 14 16 16 17 20 21 21 21 21 21 20 20 20 20 22 21 22 19 18 22 28 28 36 39 36 38 40 38 39 40 40 40 40 42 43 45 46
9 10 12 13 10 11 11 12 14 16 18 20 22 24 29 21 25 25 25 26 25 24 24 23 22 23 23 26 30 33 36 35 35 40 40 40 41 42 41 43 43 45 50 50 48
12 13 13 12 12 10 12 14 15 15 17 20 20 23 27 23 26 28 28 27 25 22 22 21 22 24 29 34 37 38 35 35 37 39 40 41 42 43 43 45 48 49 49 51 50
13 11 10 10 9 11 13 14 15 16 18 19 21 26 17 23 26 29 27 23 21 24 26 27 26 24 31 33 36 38 38 43 40 42 43 44 42 41 44 46 47 52 53 55 57
13 11 11 11 11 12 14 14 14 15 15 16 18 18 17 20 22 22 21 23 24 22 18 19 28 29 31 35 39 39 38 44 40 40 41 42 41 38 41 45 50 56 57 58 61
11 11 11 12 12 14 14 14 14 14 12 13 14 16 17 19 16 19 21 22 21 18 18 17 25 31 37 37 26 30 37 32 34 29 35 36 37 38 42 48 55 59 61 63 63
14 12 12 13 14 15 15 15 16 15 13 14 18 18 18 17 18 17 16 20 21 19 17 18 20 22 25 24 21 20 22 22 21 22 28 30 32 34 43 51 56 59 62 62 59
14 13 15 15 14 15 14 14 15 17 18 21 22 21 20 19 19 18 18 20 20 19 19 18 16 17 16 16 18 20 16 16 14 18 26 32 36 41 45 52 58 60 60 60 62
15 14 15 15 15 13 13 18 20 20 22 23 23 23 22 22 21 20 21 20 20 21 18 19 19 18 18 18 22 19 16 16 26 19 28 40 46 44 49 53 58 60 62 66 54
15 15 15 14 14 14 22 21 20 20 22 25 23 23 23 23 22 21 22 20 19 20 21 19 20 19 16 16 16 21 14 14 17 27 39 34 32 47 52 57 60 64 67 54 44
16 15 15 16 17 19 21 21 23 25 20 25 25 24 22 22 22 20 21 19 19 18 19 22 22 21 16 15 16 16 14 15 21 43 45 44 50 59 52 62 65 66 53 45 35
17 16 16 15 18 19 24 27 23 21 29 26 25 25 24 22 20 21 20 19 19 19 20 20 22 21 18 16 18 15 16 17 19 42 38 48 44 52 59 54 58 52 47 37 35
18 17 16 15 17 20 25 26 27 25 25 26 26 25 24 23 22 24 22 20 20 26 24 23 23 22 19 17 18 17 19 19 21 21 19 29 44 46 43 47 49 48 38 37 37
17 18 18 19 20 23 26 24 27 25 27 26 26 25 25 26 25 24 24 23 22 21 24 26 26 22 20 19 18 18 21 20 23 19 18 29 29 47 38 44 45 42 38 33 38
16 18 18 20 22 25 26 23 22 24 24 25 26 26 25 25 26 27 27 26 25 23 23 22 23 20 22 20 20 21 29 23 27 28 28 26 38 35 35 42 42 38 34 35 39
12 18 18 21 24 26 25 22 22 23 24 25 26 26 26 26 26 28 28 29 27 25 24 21 22 20 23 22 22 24 25 25 20 20 22 19 25 33 38 40 39 38 32 39 48
13 15 19 22 25 26 25 23 22 23 24 26 26 27 27 28 28 30 29 29 28 27 23 23 20 22 24 22 22 26 29 23 22 23 20 20 23 26 28 36 39 35 34 44 56
16 16 19 21 26 26 26 24 24 24 26 27 29 30 30 28 27 30 30 28 28 27 24 24 22 23 23 23 25 27 26 23 22 19 27 32 26 27 30 36 36 34 42 52 56
17 17 19 21 24 26 26 25 26 26 28 29 32 32 31 29 29 30 32 30 27 25 23 24 25 26 26 28 27 25 25 24 24 25 25 23 22 25 32 34 32 33 45 58 59
19 19 20 19 23 28 28 26 27 28 29 30 32 33 32 31 31 32 31 28 26 24 22 25 26 26 27 27 27 27 25 22 21 29 26 27 25 38 37 26 31 44 56 61 64
21 20 20 20 24 28 29 27 28 28 29 30 31 33 33 32 33 31 29 27 24 23 23 26 27 28 29 30 29 26 22 20 20 24 29 25 24 36 29 28 41 51 60 60 55
21 21 19 20 22 28 27 28 28 28 29 29 32 33 32 32 34 36 30 27 25 23 25 26 28 29 32 32 32 32 27 26 25 21 21 21 29 21 24 36 47 56 57 58 22
22 22 21 20 22 24 25 26 28 29 28 29 31 33 34 34 35 31 28 27 26 24 25 28 28 30 31 33 34 31 34 29 22 21 21 25 24 22 31 42 51 58 58 48 3

GFSSW_700_rhum_018.txt.gz
RH
16 12 11 11 12 14 15 14 12 13 15 15 13 12 13 13 14 14 12 26 30 28 26 26 27 27 27 24 24 32 36 42 45 43 26 24 30 30 29 36 34 40 45 46 47
8 7 7 8 9 10 11 13 13 14 18 18 16 13 14 13 14 16 15 13 30 30 28 26 24 23 23 26 27 34 35 38 34 26 24 33 35 36 36 34 34 37 38 39 41
9 9 10 10 10 10 11 12 13 16 20 18 15 16 16 15 19 14 15 15 13 20 31 30 31 30 30 26 20 24 21 27 26 31 35 36 35 36 35 36 36 36 36 37 38
10 8 5 7 11 11 12 13 15 19 19 17 18 19 20 26 20 16 15 14 14 15 14 14 30 33 14 16 20 20 23 28 26 32 35 36 35 38 37 37 36 37 38 40 40
11 7 6 5 10 11 13 14 15 17 19 20 21 21 20 18 18 19 18 18 17 16 16 38 34 18 21 20 24 24 22 26 29 31 33 35 37 38 36 36 37 38 41 41 42
10 9 10 8 11 12 14 15 18 20 22 22 24 24 24 22 22 23 23 21 21 20 21 20 21 21 18 21 24 25 27 30 31 33 35 37 37 39 35 36 39 39 38 36 34
9 12 12 10 12 13 16 17 20 22 24 26 28 24 29 24 24 24 21 20 20 18 18 19 20 20 21 26 32 32 33 34 34 36 38 38 32 40 41 39 38 37 33 30 24
11 13 13 12 12 14 16 16 19 20 22 25 26 24 21 25 21 21 18 19 20 21 21 21 20 22 28 27 27 26 40 44 43 38 33 34 39 39 36 35 34 35 33 33 31
12 12 11 10 14 15 17 18 20 21 21 23 21 29 20 22 18 17 17 16 14 16 21 22 25 26 30 37 42 40 34 41 36 37 39 30 38 23 27 31 34 37 36 33 38
11 10 11 13 15 16 18 17 16 16 17 20 18 22 19 17 16 16 16 16 15 16 17 21 31 32 37 36 37 33 26 28 33 30 22 32 32 25 28 30 33 38 38 41 42
12 12 13 15 17 17 17 15 14 14 15 16 19 17 16 14 16 17 18 18 16 27 22 30 33 30 20 19 20 19 26 26 28 26 23 24 27 22 25 29 32 36 37 45 48
13 14 15 17 18 16 14 14 19 17 18 18 17 17 17 16 14 16 19 20 27 22 25 25 16 16 15 14 15 20 24 23 21 23 24 23 25 27 27 32 33 37 43 46 44
15 15 18 18 17 15 16 18 19 19 22 21 21 20 19 18 18 18 19 19 23 23 24 28 20 15 12 12 12 27 24 18 16 20 21 36 28 30 34 36 40 40 38 48 51
16 19 18 18 16 17 20 21 21 26 30 22 20 20 20 20 20 20 18 18 19 20 19 17 16 16 17 15 13 26 20 15 20 31 37 36 34 41 42 43 44 48 58 56 51
18 18 15 16 18 23 22 22 21 25 27 23 21 21 20 20 20 18 17 16 17 17 26 30 18 18 14 14 15 14 18 22 24 25 40 37 41 46 46 48 53 62 53 46 34
18 16 15 18 22 21 22 23 21 27 34 22 21 21 21 20 19 18 18 17 18 22 22 20 19 17 14 16 16 18 20 25 26 35 39 37 34 42 43 46 53 50 39 28 27
17 16 16 20 22 26 25 23 32 31 23 23 22 22 22 21 21 21 20 19 19 34 32 29 27 16 15 18 19 20 22 27 35 46 37 29 32 36 42 43 40 32 27 27 26
17 17 19 20 19 23 24 32 32 32 28 22 22 23 24 22 22 23 33 26 20 18 30 26 30 17 16 19 18 23 28 28 32 33 25 24 28 37 35 33 32 31 32 32 22
18 17 16 17 20 24 30 37 32 32 22 23 24 36 30 24 24 28 26 25 22 19 22 18 28 18 18 20 20 24 30 26 26 24 25 23 34 36 36 38 34 31 34 28 20
19 19 18 20 24 26 32 29 21 22 22 24 37 30 34 27 38 37 31 26 23 22 19 20 26 24 23 22 25 27 30 28 26 35 34 24 29 34 35 36 31 33 32 21 22
20 20 21 24 26 28 39 23 22 23 24 25 27 28 28 27 26 28 26 25 24 22 20 20 20 26 27 25 24 27 30 28 28 25 31 36 31 30 29 32 32 34 34 21 24
20 20 21 25 26 24 23 22 23 24 25 26 28 30 29 27 26 27 27 27 23 21 18 22 22 25 28 26 28 30 30 31 28 26 24 24 27 32 35 31 41 43 31 20 24
19 20 20 26 27 25 23 23 24 25 26 27 30 29 29 27 27 27 25 23 22 21 20 21 28 28 27 30 30 30 32 32 32 28 28 29 32 31 30 44 43 40 20 21 29
18 20 23 24 26 26 25 23 24 26 27 28 30 30 29 28 28 27 27 23 22 21 20 20 23 26 28 29 30 32 33 33 34 31 28 30 31 30 33 34 33 26 18 25 37
19 20 19 22 23 26 27 25 25 25 27 28 29 30 30 29 28 28 26 23 23 23 22 22 22 24 26 28 30 32 34 34 33 32 33 37 35 34 31 31 29 18 21 30 35
20 20 20 21 21 25 28 26 24 26 26 27 28 30 31 30 30 26 24 24 24 26 25 23 25 25 26 28 32 32 34 33 36 38 37 34 36 34 31 23 15 17 26 34 13
22 22 20 22 22 24 27 26 24 25 26 26 27 28 30 32 29 28 27 27 28 26 24 24 26 28 28 32 33 35 36 39 38 40 41 37 41 30 21 13 13 24 32 33 5

GFSSW_700_rhum_021.txt.gz
RH
16 15 15 13 13 13 12 12 13 14 13 12 12 12 13 13 12 24 26 25 28 29 30 29 28 28 26 28 34 34 34 41 44 45 28 27 34 32 31 34 33 34 34 36 36
8 8 8 8 9 10 12 12 14 16 15 13 12 13 13 13 12 13 24 28 29 27 26 28 26 25 23 26 34 36 32 33 39 28 22 29 33 32 34 34 35 35 35 36 39
9 9 9 9 10 10 11 13 16 17 16 14 14 14 12 12 14 13 14 19 30 31 29 28 24 26 29 27 25 28 23 25 23 26 31 32 34 34 36 37 35 35 36 36 39
8 8 10 10 10 11 12 14 16 18 16 16 16 16 16 15 15 14 14 14 14 18 27 26 19 14 13 14 18 18 22 27 23 29 32 35 33 34 35 34 34 34 37 37 33
7 6 5 10 11 12 14 15 17 18 17 18 17 17 16 16 16 17 17 16 15 14 13 13 16 16 16 17 21 20 22 26 28 30 33 34 34 35 34 33 32 32 34 31 30
7 9 7 10 11 13 14 16 18 19 19 18 19 19 20 19 21 20 20 20 20 17 18 16 16 19 18 21 24 28 29 30 30 32 32 33 30 30 30 33 32 32 32 27 21
9 12 10 12 13 14 15 18 20 22 22 24 24 23 26 22 22 23 18 19 17 16 15 15 17 18 23 25 27 32 33 35 36 38 32 27 26 31 36 36 31 25 23 22 19
11 13 12 11 13 14 16 19 21 22 22 25 24 24 20 23 21 20 17 16 18 19 16 16 20 22 26 33 34 33 37 40 37 34 29 20 24 26 31 33 32 31 29 24 21
12 13 11 12 13 14 16 18 19 20 21 20 20 24 19 20 18 17 14 14 13 16 19 21 21 23 33 37 38 35 38 40 35 32 30 24 21 27 32 33 32 29 25 24 27
12 11 11 13 14 15 16 17 18 18 18 18 17 20 18 17 18 17 16 15 14 16 22 26 28 28 30 34 37 34 27 32 28 27 32 26 22 25 28 32 28 27 29 32 35
11 11 13 14 14 14 13 14 15 16 18 20 16 14 15 16 17 18 17 17 15 17 18 24 26 30 17 17 19 19 26 24 24 26 23 22 19 27 32 30 30 32 38 44 38
12 12 14 15 14 13 14 15 16 17 17 17 17 17 16 16 16 18 19 16 18 18 21 25 16 15 14 12 13 17 19 20 18 18 20 22 25 31 27 31 34 39 47 44 33
12 14 16 15 15 16 17 18 21 19 21 21 20 20 19 18 18 18 18 18 16 18 19 26 17 15 12 12 12 15 21 26 20 21 22 29 30 28 32 36 40 48 46 36 35
14 16 16 16 17 18 21 22 25 28 23 22 20 19 20 19 18 18 17 17 16 16 17 16 16 15 11 13 14 16 16 18 25 26 26 30 36 35 39 43 48 46 43 42 44
16 17 15 15 17 21 22 22 23 28 34 23 21 21 20 19 19 17 16 16 16 17 20 18 18 17 14 16 15 17 22 24 28 28 35 35 42 40 41 45 48 46 47 50 36
17 16 14 17 22 21 22 25 24 30 32 23 22 21 19 20 19 19 18 18 20 29 27 21 19 16 15 18 18 20 22 23 27 34 42 32 33 38 39 38 44 47 52 40 28
16 14 17 22 25 26 24 23 34 30 25 23 22 22 21 21 21 21 20 19 18 28 27 27 27 16 16 18 18 23 25 25 32 47 44 30 36 33 35 40 47 48 38 30 30
16 15 21 23 24 24 29 34 30 31 32 23 23 22 23 22 23 23 22 22 20 18 30 24 25 18 18 20 20 25 29 26 32 39 29 28 28 28 34 38 38 35 31 31 35
15 17 20 20 22 25 34 32 29 30 22 23 29 34 33 26 27 30 24 23 21 19 17 16 23 20 22 22 23 26 30 29 27 27 29 26 29 33 32 36 33 31 32 36 33
17 18 19 18 24 27 31 22 23 22 22 26 29 32 34 27 31 31 26 24 22 20 17 18 18 23 24 24 26 27 30 30 29 34 37 27 28 28 32 30 33 34 36 36 28
18 18 18 23 26 32 26 21 22 22 24 26 26 26 27 26 24 25 24 26 22 20 18 19 19 21 24 27 27 27 30 31 33 29 32 43 32 31 32 35 33 34 35 40 24
20 21 23 26 25 24 22 21 23 24 25 26 28 28 26 25 24 24 24 22 20 20 18 18 20 21 24 28 29 30 32 33 32 31 27 26 28 37 34 32 34 37 41 35 22
21 21 24 26 26 23 22 23 24 25 25 26 27 27 26 26 26 25 24 21 20 20 18 18 21 23 24 28 28 29 31 33 34 34 32 30 34 34 32 35 37 38 38 26 20
21 21 22 26 27 25 22 22 23 24 24 25 27 27 27 26 26 26 24 21 21 21 20 20 20 22 24 26 28 30 30 33 36 37 33 34 36 32 34 36 37 35 29 18 24
18 19 20 24 26 26 25 22 22 21 23 24 27 28 28 26 27 25 24 23 24 25 24 24 23 23 24 25 28 30 32 35 36 35 36 38 40 40 38 36 34 24 16 19 27
18 19 20 22 24 27 27 24 22 21 22 23 26 28 28 28 27 25 26 27 27 27 26 24 25 25 28 30 31 32 31 35 36 38 39 40 44 40 40 37 28 15 15 25 20
20 20 20 21 21 24 26 26 24 22 23 22 24 27 29 28 28 28 28 28 29 28 26 26 27 28 30 32 34 32 34 37 38 40 43 43 47 46 42 36 15 13 21 23 6